• In Hungary
  • List of Countries
  • For 7 days
  • Water Temperature
  • Satellite Maps
  • Weather Map
  • News
  • Weather Widgets
  • user-avatar
    Login

    Hourly Weather East Grinstead

    Today, 21 November, Tuesday

    Time Temperature Precipitation Wind Pressure Humidity
    00:00 +11°C° 0 mm 6 mps 750 mmHg 92%
    01:00 +11°C° 0 mm 6 mps 750 mmHg 91%
    02:00 +11°C° 0 mm 7 mps 749 mmHg 91%
    03:00 +11°C° 0 mm 7 mps 749 mmHg 90%
    04:00 +11°C° 0 mm 7 mps 749 mmHg 90%
    05:00 +11°C° 0 mm 6 mps 749 mmHg 90%
    06:00 +10°C° 0 mm 6 mps 749 mmHg 89%
    07:00 +10°C° 0 mm 6 mps 749 mmHg 88%
    08:00 +10°C° 0 mm 6 mps 749 mmHg 88%
    09:00 +10°C° 0 mm 7 mps 749 mmHg 87%
    10:00 +11°C° 0 mm 7 mps 749 mmHg 85%
    11:00 +11°C° 0 mm 7 mps 749 mmHg 83%
    12:00 +11°C° 0 mm 7 mps 748 mmHg 81%
    13:00 +11°C° 0 mm 7 mps 748 mmHg 81%
    14:00 +11°C° 0 mm 7 mps 748 mmHg 82%
    15:00 +11°C° 0 mm 7 mps 747 mmHg 82%
    16:00 +11°C° 0 mm 8 mps 747 mmHg 82%
    17:00 +11°C° 0 mm 8 mps 747 mmHg 82%
    18:00 +11°C° 0 mm 8 mps 746 mmHg 82%
    19:00 +11°C° 0 mm 8 mps 746 mmHg 82%
    20:00 +11°C° 0 mm 8 mps 745 mmHg 83%
    21:00 +11°C° 0 mm 8 mps 745 mmHg 83%
    22:00 +11°C° 0 mm 9 mps 745 mmHg 83%
    23:00 +11°C° 0 mm 9 mps 745 mmHg 82%

    Tomorrow, 22 November, Wednesday

    Time Temperature Precipitation Wind Pressure Humidity
    00:00 +11°C° 0 mm 9 mps 744 mmHg 82%
    01:00 +12°C° 0 mm 9 mps 744 mmHg 82%
    02:00 +12°C° 0 mm 9 mps 744 mmHg 81%
    03:00 +12°C° 0 mm 8 mps 743 mmHg 81%
    04:00 +12°C° 0 mm 8 mps 743 mmHg 81%
    05:00 +12°C° 0 mm 8 mps 743 mmHg 81%
    06:00 +11°C° 0 mm 9 mps 742 mmHg 81%
    07:00 +12°C° 0 mm 9 mps 742 mmHg 79%
    08:00 +12°C° 0 mm 9 mps 742 mmHg 76%
    09:00 +12°C° 0 mm 9 mps 742 mmHg 73%
    10:00 +12°C° 0 mm 10 mps 741 mmHg 68%
    11:00 +13°C° 0 mm 10 mps 741 mmHg 63%
    12:00 +13°C° 0 mm 11 mps 740 mmHg 58%
    13:00 +13°C° 0 mm 10 mps 739 mmHg 58%
    14:00 +13°C° 0 mm 10 mps 738 mmHg 58%
    15:00 +13°C° 0 mm 10 mps 738 mmHg 57%
    16:00 +13°C° 0 mm 11 mps 737 mmHg 57%
    17:00 +13°C° 0 mm 11 mps 736 mmHg 56%
    18:00 +13°C° 0 mm 12 mps 736 mmHg 55%
    19:00 +13°C° 0.2 mm 13 mps 735 mmHg 61%
    20:00 +13°C° 0.2 mm 13 mps 735 mmHg 66%
    21:00 +12°C° 0.2 mm 13 mps 735 mmHg 72%
    22:00 +12°C° 0.4 mm 14 mps 734 mmHg 73%
    23:00 +12°C° 0.4 mm 14 mps 734 mmHg 73%

    Day after tomorrow, 23 November, Thursday

    Time Temperature Precipitation Wind Pressure Humidity
    00:00 +12°C° 0.4 mm 14 mps 733 mmHg 74%
    01:00 +12°C° 0.7 mm 14 mps 733 mmHg 76%
    02:00 +13°C° 0.7 mm 13 mps 733 mmHg 78%
    03:00 +13°C° 0.7 mm 13 mps 732 mmHg 81%
    04:00 +12°C° 0.2 mm 12 mps 733 mmHg 80%
    05:00 +12°C° 0.2 mm 12 mps 734 mmHg 79%
    06:00 +12°C° 0.2 mm 11 mps 735 mmHg 79%
    07:00 +11°C° 0.1 mm 10 mps 736 mmHg 75%
    08:00 +8°C° 0.1 mm 10 mps 737 mmHg 71%
    09:00 +7°C° 0.1 mm 9 mps 739 mmHg 68%
    10:00 +8°C° 0 mm 9 mps 739 mmHg 67%
    11:00 +10°C° 0 mm 9 mps 740 mmHg 66%
    12:00 +11°C° 0 mm 10 mps 740 mmHg 65%
    13:00 +11°C° 0 mm 10 mps 740 mmHg 67%
    14:00 +11°C° 0 mm 9 mps 740 mmHg 68%
    15:00 +11°C° 0 mm 9 mps 740 mmHg 70%
    16:00 +11°C° 0.6 mm 10 mps 740 mmHg 73%
    17:00 +12°C° 0.6 mm 11 mps 741 mmHg 77%
    18:00 +12°C° 0.6 mm 11 mps 741 mmHg 80%
    19:00 +11°C° 0.4 mm 10 mps 741 mmHg 81%
    20:00 +11°C° 0.4 mm 9 mps 742 mmHg 82%
    21:00 +10°C° 0.4 mm 7 mps 742 mmHg 83%
    22:00 +9°C° 0 mm 6 mps 743 mmHg 83%
    23:00 +8°C° 0 mm 5 mps 743 mmHg 83%

    24 November, Friday

    Time Temperature Precipitation Wind Pressure Humidity
    00:00 +8°C° 0 mm 3 mps 744 mmHg 83%
    01:00 +8°C° 0 mm 3 mps 744 mmHg 82%
    02:00 +8°C° 0 mm 2 mps 744 mmHg 82%
    03:00 +8°C° 0 mm 1 mps 744 mmHg 81%
    04:00 +8°C° 0.2 mm 1 mps 744 mmHg 82%
    05:00 +8°C° 0.2 mm 1 mps 744 mmHg 82%
    06:00 +8°C° 0.2 mm 1 mps 743 mmHg 82%
    07:00 +7°C° 0.9 mm 2 mps 743 mmHg 84%
    08:00 +8°C° 0.9 mm 2 mps 743 mmHg 85%
    09:00 +8°C° 0.9 mm 3 mps 743 mmHg 87%
    10:00 +8°C° 0.8 mm 3 mps 743 mmHg 88%
    11:00 +8°C° 0.8 mm 4 mps 743 mmHg 90%
    12:00 +8°C° 0.8 mm 4 mps 742 mmHg 91%
    13:00 +10°C° 0.2 mm 4 mps 742 mmHg 91%
    14:00 +10°C° 0.2 mm 5 mps 741 mmHg 92%
    15:00 +10°C° 0.2 mm 5 mps 741 mmHg 93%
    16:00 +10°C° 0.7 mm 5 mps 741 mmHg 93%
    17:00 +11°C° 0.7 mm 6 mps 741 mmHg 93%
    18:00 +11°C° 0.7 mm 6 mps 741 mmHg 93%
    19:00 +11°C° 0.2 mm 6 mps 740 mmHg 93%
    20:00 +10°C° 0.2 mm 6 mps 740 mmHg 93%
    21:00 +10°C° 0.2 mm 6 mps 740 mmHg 93%
    22:00 +11°C° 0.6 mm 7 mps 739 mmHg 91%
    23:00 +11°C° 0.6 mm 9 mps 738 mmHg 89%

    25 November, Saturday

    Time Temperature Precipitation Wind Pressure Humidity
    00:00 +11°C° 0.6 mm 10 mps 737 mmHg 87%
    01:00 +11°C° 0.6 mm 11 mps 736 mmHg 81%
    02:00 +9°C° 0.6 mm 13 mps 734 mmHg 76%
    03:00 +9°C° 0.6 mm 14 mps 733 mmHg 70%
    04:00 +8°C° 0.1 mm 14 mps 733 mmHg 70%
    05:00 +8°C° 0.1 mm 15 mps 732 mmHg 70%
    06:00 +8°C° 0.1 mm 15 mps 732 mmHg 71%
    07:00 +5°C° 0.4 mm 15 mps 733 mmHg 72%
    08:00 +4°C° 0.4 mm 16 mps 735 mmHg 73%
    09:00 +2°C° 0.4 mm 16 mps 737 mmHg 74%
    10:00 +2°C° 0.2 mm 15 mps 739 mmHg 71%
    11:00 +1°C° 0.2 mm 13 mps 742 mmHg 69%
    12:00 +2°C° 0.2 mm 12 mps 745 mmHg 66%
    13:00 +2°C° 0.1 mm 11 mps 746 mmHg 65%
    14:00 +2°C° 0.1 mm 10 mps 747 mmHg 65%
    15:00 +4°C° 0.1 mm 8 mps 748 mmHg 64%
    16:00 +2°C° 0 mm 8 mps 749 mmHg 65%
    17:00 +3°C° 0 mm 7 mps 749 mmHg 65%
    18:00 +2°C° 0 mm 7 mps 750 mmHg 65%
    19:00 +2°C° 0 mm 7 mps 751 mmHg 66%
    20:00 +2°C° 0 mm 7 mps 751 mmHg 66%
    21:00 +2°C° 0 mm 6 mps 752 mmHg 66%
    22:00 +2°C° 0 mm 6 mps 752 mmHg 67%
    23:00 +2°C° 0 mm 6 mps 752 mmHg 67%

    26 November, Sunday

    Time Temperature Precipitation Wind Pressure Humidity
    00:00 +1°C° 0 mm 6 mps 752 mmHg 68%
    01:00 +1°C° 0 mm 6 mps 752 mmHg 68%
    02:00 +1°C° 0 mm 6 mps 753 mmHg 68%
    03:00 +1°C° 0 mm 6 mps 753 mmHg 68%
    04:00 0°C° 0 mm 7 mps 753 mmHg 68%
    05:00 0°C° 0 mm 7 mps 753 mmHg 68%
    06:00 0°C° 0 mm 7 mps 754 mmHg 68%
    07:00 0°C° 0 mm 7 mps 754 mmHg 67%
    08:00 0°C° 0 mm 7 mps 755 mmHg 66%
    09:00 +1°C° 0 mm 8 mps 755 mmHg 65%
    10:00 +2°C° 0 mm 8 mps 756 mmHg 65%
    11:00 +4°C° 0 mm 8 mps 756 mmHg 64%
    12:00 +5°C° 0 mm 8 mps 756 mmHg 63%
    13:00 +4°C° 0 mm 7 mps 757 mmHg 66%
    14:00 +4°C° 0 mm 7 mps 757 mmHg 69%
    15:00 +4°C° 0 mm 6 mps 757 mmHg 72%
    16:00 +4°C° 0 mm 6 mps 757 mmHg 75%
    17:00 +3°C° 0 mm 5 mps 758 mmHg 78%
    18:00 +3°C° 0 mm 5 mps 758 mmHg 81%
    19:00 +2°C° 0 mm 5 mps 758 mmHg 80%
    20:00 +2°C° 0 mm 5 mps 758 mmHg 80%
    21:00 +2°C° 0 mm 5 mps 759 mmHg 80%
    22:00 +2°C° 0 mm 5 mps 759 mmHg 78%
    23:00 +2°C° 0 mm 5 mps 758 mmHg 77%
    Show more